This demonstration page uses our WeatherBlox Daily Observations layout. Learn more.

38.89511, -77.03637

Hourly Observations for June 3, 2015

Temp ( °F °C ) Dew Point ( °F °C ) Humidity (%) Winds ( mph kmh ) Pressure ( in mb ) Visibility ( mi km ) Precip ( " mm )
12:10 am 00:10 Cloudy with Light Drizzle 61 16 57 14 88 88 NNE 12 19 30.15 1021 2 3.218688 0 0
12:32 am 00:32 Cloudy with Light Drizzle 61 16 55 13 83 83 NE 12 19 30.15 1021 3 4.828032 0 0
12:52 am 00:52 Cloudy with Light Drizzle 61 16 55 13 83 83 NNE 13 20 30.15 1021 5 8.04672 0.02 0.508
1:01 am 01:01 Cloudy with Light Drizzle 61 16 57 14 88 88 NE 12 19 30.15 1021 6 9.656064 0.001 0.001
1:52 am 01:52 Cloudy with Light Drizzle 61 16 55 13 83 83 NNE 12 19 30.15 1021 4 6.437376 0.01 0.254
2:06 am 02:06 Cloudy with Light Drizzle 61 16 55 13 83 83 NNE 12 19 30.15 1021 5 8.04672 0.001 0.001
2:36 am 02:36 Cloudy with Light Drizzle 61 16 55 13 83 83 NE 12 19 30.15 1021 7 11.265408 0 0
2:47 am 02:47 Cloudy with Light Drizzle 61 16 55 13 83 83 NNE 10 17 30.15 1021 7 11.265408 0.001 0.001
2:52 am 02:52 Cloudy with Light Drizzle 61 16 55 13 83 83 NE 9 15 30.15 1021 7 11.265408 0.001 0.001
3:52 am 03:52 Cloudy with Light Drizzle 61 16 55 13 83 83 NE 10 17 30.12 1020 10 16.09344 0.001 0.001
4:52 am 04:52 Cloudy with Light Drizzle 61 16 55 13 83 83 NE 13 20 30.12 1020 10 16.09344 0.001 0.001
5:29 am 05:29 Cloudy 61 16 55 13 83 83 ENE 13 20 30.15 1021 10 16.09344 0.001 0.001
5:52 am 05:52 Cloudy 61 16 55 13 83 83 ENE 13 20 30.15 1021 10 16.09344 0.001 0.001
6:52 am 06:52 Cloudy 61 16 55 13 83 83 NE 15 24 30.15 1021 10 16.09344 0 0
7:52 am 07:52 Cloudy with Haze 61 16 55 13 83 83 NNE 14 22 30.18 1022 4 6.437376 0 0
8:01 am 08:01 Cloudy with Mist and Fog 61 16 55 13 83 83 NNE 14 22 30.18 1022 4 6.437376 0 0
8:52 am 08:52 Cloudy with Haze 61 16 55 13 83 83 NE 13 20 30.18 1022 6 9.656064 0 0
9:28 am 09:28 Cloudy with Haze 61 16 55 13 83 83 ENE 15 24 30.21 1023 6 9.656064 0 0
9:52 am 09:52 Cloudy 61 16 55 13 83 83 NE 15 24 30.18 1022 7 11.265408 0 0
10:52 am 10:52 Cloudy 61 16 55 13 83 83 ENE 15 24 30.18 1022 7 11.265408 0 0
11:52 am 11:52 Cloudy 63 17 55 13 77 77 ENE 15 24 30.21 1023 8 12.874752 0 0
12:04 pm 12:04 Cloudy 61 16 55 13 83 83 ENE 12 19 30.21 1023 8 12.874752 0 0
12:52 pm 12:52 Cloudy 61 16 55 13 83 83 NE 13 20 30.21 1023 10 16.09344 0 0
1:52 pm 13:52 Cloudy with Haze 61 16 55 13 83 83 ENE 10 17 30.18 1022 6 9.656064 0 0
1:59 pm 13:59 Cloudy with Light Drizzle 61 16 55 13 83 83 ENE 9 15 30.18 1022 4 6.437376 0.001 0.001
2:22 pm 14:22 Cloudy with Light Drizzle 61 16 55 13 83 83 NE 12 19 30.18 1022 3 4.828032 0 0
2:52 pm 14:52 Cloudy with Haze 61 16 55 13 83 83 ENE 10 17 30.18 1022 6 9.656064 0.001 0.001
3:52 pm 15:52 Cloudy 63 17 55 13 77 77 NE 8 13 30.18 1022 10 16.09344 0 0
4:52 pm 16:52 Cloudy 63 17 55 13 77 77 NE 9 15 30.15 1021 10 16.09344 0 0
5:52 pm 17:52 Cloudy 63 17 55 13 77 77 NE 7 11 30.15 1021 10 16.09344 0 0
6:25 pm 18:25 Cloudy 64 18 55 13 73 73 ENE 10 17 30.15 1021 10 16.09344 0 0
6:52 pm 18:52 Cloudy 64 18 55 13 73 73 ENE 8 13 30.15 1021 10 16.09344 0 0
7:52 pm 19:52 Cloudy 63 17 57 14 83 83 ENE 7 11 30.15 1021 9 14.484096 0.001 0.001
8:52 pm 20:52 Cloudy 63 17 55 13 77 77 ESE 6 9 30.18 1022 10 16.09344 0 0
9:52 pm 21:52 Cloudy 63 17 55 13 77 77 E 6 9 30.18 1022 10 16.09344 0 0
10:52 pm 22:52 Cloudy 63 17 54 12 73 73 E 9 15 30.21 1023 10 16.09344 0.001 0.001
11:31 pm 23:31 Cloudy with Light Rain 63 17 54 12 73 73 ENE 8 13 30.21 1023 10 16.09344 0.001 0.001
11:52 pm 23:52 Cloudy with Light Rain 63 17 55 13 77 77 ENE 8 13 30.18 1022 10 16.09344 0.001 0.001

Powered by AerisWeather